TimeCDT,TemperatureF,Dew PointF,Humidity,Sea Level PressureIn,VisibilityMPH,Wind Direction,Wind SpeedMPH,Gust SpeedMPH,PrecipitationIn,Events,Conditions,WindDirDegrees,DateUTC
12:15 AM,52.2,37.4,57,30.19,10.0,NE,6.9,-,N/A,,Overcast,50,2013-04-17 05:15:00
12:35 AM,52.3,37.2,56,30.19,10.0,NNE,5.8,-,N/A,,Overcast,30,2013-04-17 05:35:00
12:55 AM,52.3,37.6,57,30.18,10.0,NE,8.1,-,N/A,,Overcast,50,2013-04-17 05:55:00
1:15 AM,52.5,37.6,57,30.20,10.0,NE,5.8,-,N/A,,Overcast,50,2013-04-17 06:15:00
1:35 AM,52.2,38.5,60,30.19,10.0,ENE,8.1,-,N/A,,Overcast,60,2013-04-17 06:35:00
1:55 AM,52.2,38.5,60,30.19,10.0,ENE,5.8,-,N/A,,Overcast,60,2013-04-17 06:55:00
2:15 AM,52.3,38.3,59,30.18,10.0,NE,8.1,-,N/A,,Overcast,50,2013-04-17 07:15:00
2:35 AM,52.7,38.5,58,30.17,10.0,ENE,10.4,-,N/A,,Overcast,70,2013-04-17 07:35:00
2:55 AM,52.2,39.0,61,30.16,10.0,ENE,11.5,-,N/A,,Overcast,60,2013-04-17 07:55:00
3:15 AM,52.7,39.6,61,30.15,10.0,ENE,12.7,-,N/A,,Overcast,70,2013-04-17 08:15:00
3:35 AM,52.7,41.0,64,30.15,10.0,East,13.8,20.7,N/A,,Overcast,80,2013-04-17 08:35:00
3:55 AM,52.7,40.6,64,30.15,10.0,East,15.0,-,N/A,,Overcast,90,2013-04-17 08:55:00
4:15 AM,52.0,39.2,62,30.14,10.0,East,18.4,21.9,N/A,,Light Drizzle,80,2013-04-17 09:15:00
4:35 AM,50.9,36.1,57,30.13,10.0,East,17.3,24.2,N/A,,Overcast,80,2013-04-17 09:35:00
4:55 AM,50.9,36.9,59,30.14,10.0,NE,10.4,20.7,N/A,,Overcast,50,2013-04-17 09:55:00
5:15 AM,50.2,37.0,61,30.13,10.0,NE,16.1,-,N/A,,Overcast,40,2013-04-17 10:15:00
5:35 AM,49.3,36.3,61,30.12,10.0,ENE,19.6,-,N/A,,Overcast,70,2013-04-17 10:35:00
5:55 AM,49.1,37.0,63,30.12,10.0,ENE,11.5,28.8,N/A,,Overcast,70,2013-04-17 10:55:00
6:15 AM,49.1,36.3,61,30.13,10.0,ENE,13.8,18.4,N/A,Rain,Light Rain,60,2013-04-17 11:15:00
6:35 AM,48.6,36.0,62,30.10,10.0,East,16.1,-,N/A,,Overcast,80,2013-04-17 11:35:00
6:55 AM,48.6,35.6,61,30.09,10.0,East,15.0,21.9,N/A,,Overcast,90,2013-04-17 11:55:00
7:15 AM,49.3,33.4,54,30.10,10.0,East,17.3,21.9,N/A,,Overcast,90,2013-04-17 12:15:00
7:35 AM,49.3,33.1,54,30.08,10.0,East,18.4,-,N/A,,Overcast,90,2013-04-17 12:35:00
7:55 AM,49.1,33.3,54,30.07,10.0,East,17.3,26.5,N/A,,Overcast,90,2013-04-17 12:55:00
8:15 AM,49.1,34.0,56,30.05,10.0,East,18.4,24.2,N/A,,Overcast,90,2013-04-17 13:15:00
8:35 AM,49.1,34.5,57,30.07,10.0,East,17.3,-,N/A,,Overcast,90,2013-04-17 13:35:00
9:15 AM,48.0,37.0,66,30.03,5.0,East,16.1,-,N/A,,Haze,90,2013-04-17 14:15:00
9:35 AM,48.4,37.4,66,30.01,10.0,East,19.6,24.2,N/A,,Overcast,90,2013-04-17 14:35:00
9:55 AM,48.6,37.8,66,30.03,10.0,East,18.4,-,N/A,,Overcast,100,2013-04-17 14:55:00
10:15 AM,47.5,39.4,73,30.02,4.0,East,13.8,-,N/A,,Haze,100,2013-04-17 15:15:00
10:35 AM,47.1,40.8,79,30.01,2.0,ESE,12.7,-,N/A,,Haze,110,2013-04-17 15:35:00
10:55 AM,47.3,41.0,79,30.01,3.0,ESE,9.2,-,N/A,,Haze,110,2013-04-17 15:55:00
11:15 AM,47.5,41.4,79,30.04,2.5,NNE,6.9,-,N/A,,Haze,20,2013-04-17 16:15:00
11:35 AM,47.3,41.5,80,30.10,1.8,WNW,16.1,23.0,N/A,Rain,Rain,300,2013-04-17 16:35:00
11:55 AM,46.6,41.0,81,30.07,1.8,North,17.3,25.3,0.04,Rain,Heavy Rain,350,2013-04-17 16:55:00
12:15 PM,45.5,39.6,80,30.05,2.0,NNE,17.3,25.3,0.11,Rain,Light Rain,20,2013-04-17 17:15:00
12:35 PM,45.5,40.1,81,30.01,1.5,ENE,18.4,-,0.26,,Unknown,70,2013-04-17 17:35:00
12:55 PM,46.2,40.8,81,29.98,3.0,NE,15.0,-,0.43,,Unknown,50,2013-04-17 17:55:00
1:15 PM,46.6,41.0,81,29.95,4.0,ENE,18.4,25.3,0.07,Rain,Rain,60,2013-04-17 18:15:00
1:35 PM,46.6,41.2,81,29.95,0.5,ENE,17.3,-,0.29,,Unknown,60,2013-04-17 18:35:00
1:55 PM,46.6,41.2,81,30.01,7.0,NNE,6.9,-,0.32,Rain,Rain,30,2013-04-17 18:55:00
2:15 PM,46.8,41.4,81,30.01,7.0,East,10.4,-,0.02,Rain,Rain,90,2013-04-17 19:15:00
2:35 PM,46.9,41.5,81,29.91,5.0,ENE,20.7,25.3,0.04,Rain,Light Rain,60,2013-04-17 19:35:00
2:55 PM,47.5,42.1,82,30.00,7.0,SSE,13.8,25.3,0.04,Rain,Light Rain,150,2013-04-17 19:55:00
3:35 PM,47.7,42.3,82,29.85,5.0,East,21.9,-,0.07,Rain,Rain,80,2013-04-17 20:35:00
3:55 PM,48.2,42.8,82,29.79,10.0,East,25.3,31.1,0.07,Rain,Light Rain,80,2013-04-17 20:55:00
4:35 PM,50.0,43.7,79,29.93,10.0,Calm,Calm,-,N/A,,Overcast,0,2013-04-17 21:35:00
4:55 PM,50.0,43.9,79,29.95,4.0,SE,6.9,-,0.06,Rain,Heavy Rain,130,2013-04-17 21:55:00
5:35 PM,49.6,44.6,83,29.83,5.0,ENE,15.0,18.4,0.01,Rain,Light Rain,70,2013-04-17 22:35:00
6:15 PM,51.6,46.0,81,29.81,10.0,East,12.7,-,0.03,Rain,Rain,90,2013-04-17 23:15:00
6:35 PM,52.2,46.8,82,29.77,7.0,SE,20.7,28.8,0.05,Rain,Light Rain,130,2013-04-17 23:35:00
6:55 PM,52.7,47.1,81,29.76,10.0,ESE,21.9,27.6,0.05,Rain,Light Rain,110,2013-04-17 23:55:00
7:15 PM,54.1,48.6,81,29.76,10.0,ESE,16.1,-,N/A,,Scattered Clouds,120,2013-04-18 00:15:00
7:35 PM,56.5,50.4,80,29.76,10.0,ESE,18.4,21.9,N/A,Rain,Light Rain,110,2013-04-18 00:35:00
7:55 PM,56.5,50.7,81,29.73,10.0,East,11.5,25.3,0.03,Rain,Light Rain,80,2013-04-18 00:55:00
8:15 PM,58.8,52.2,79,29.70,10.0,ENE,13.8,21.9,0.01,Rain,Light Rain,70,2013-04-18 01:15:00
8:35 PM,58.6,52.2,79,29.71,10.0,North,6.9,-,0.01,Rain,Light Rain,10,2013-04-18 01:35:00
8:55 PM,57.6,51.6,81,29.72,7.0,ENE,5.8,-,0.03,Rain,Rain,70,2013-04-18 01:55:00
9:15 PM,60.1,54.0,80,29.71,10.0,East,12.7,18.4,N/A,Rain,Light Rain,100,2013-04-18 02:15:00
9:35 PM,60.1,53.6,79,29.68,10.0,East,8.1,-,0.02,Rain,Light Rain,90,2013-04-18 02:35:00
9:55 PM,60.3,54.3,81,29.68,10.0,ESE,6.9,-,0.03,Rain,Light Rain,120,2013-04-18 02:55:00
10:15 PM,58.8,52.2,79,29.71,7.0,North,4.6,17.3,N/A,Rain,Rain,350,2013-04-18 03:15:00
10:35 PM,57.2,51.1,80,29.80,5.0,WNW,24.2,34.5,0.06,Rain,Heavy Rain,300,2013-04-18 03:35:00
10:55 PM,57.6,51.8,81,29.75,3.0,North,20.7,25.3,0.22,Rain,Heavy Rain,360,2013-04-18 03:55:00
11:15 PM,58.3,52.3,81,29.75,2.0,North,18.4,-,0.30,Rain,Heavy Rain,10,2013-04-18 04:15:00
11:35 PM,58.1,52.3,81,29.73,4.0,NNE,17.3,-,0.51,Rain,Rain,30,2013-04-18 04:35:00
11:55 PM,58.3,52.7,82,29.71,7.0,NNE,16.1,-,0.57,Rain,Rain,30,2013-04-18 04:55:00